{"data":{"norad_id":81123,"intl_designator":"","name":"UNKNOWN","alt_names":[],"object_type":"UNKNOWN","status":"UNKNOWN","operator":null,"country":null,"launch_date":null,"launch_site_code":null,"launch_vehicle":null,"mission":null,"orbit_class":"UNKNOWN","rcs_meters":null,"size_class":null,"mass_kg":null,"dimensions":null,"purposes":[],"wikipedia_slug":null,"has_3d_model":false,"image_url":null,"decayed_at":null,"tle_current":{"epoch":"2026-09-13T02:01:26.409216Z","epoch_age_seconds":655827,"freshness":"AGED","line1":"1 81123U          26256.08433344  .00000750  00000+0  74176-3 0  9994","line2":"2 81123  99.9688 358.0522 0003759  99.1342 261.0234 13.82181451644177","mean_motion":13.82181451,"eccentricity":0.0003759,"inclination_deg":99.9688,"raan_deg":358.0522,"arg_perigee_deg":99.1342,"mean_anomaly_deg":261.0234,"bstar":0.00074176,"rev_number":64417,"period_min":104.18313738462,"perigee_km":953.40261785087,"apogee_km":958.91654201967,"semimajor_km":7334.2965799353,"source":"CELESTRAK","updated_at":"2026-09-20T09:00:32.383653Z"}}}